Livermore, CA

10:28 AM PDT on April 23, 2018 (GMT -0700)
Livermore Municipal

Weather History for KLVK - January, 2012

Change the Weather History Date:

Thursday, January 12, 2012

  Actual Average Record
Temperature  
Mean Temperature 49 °F 46 °F  
Max Temperature 64 °F 56 °F 71 °F (1959)
Min Temperature 33 °F 37 °F 23 °F (1964)
Degree Days  
Heating Degree Days 16 19  
Month to date heating degree days 177 228  
Since 1 July heating degree days 1187 1259  
Cooling Degree Days 0 0  
Month to date cooling degree days 0 0  
Year to date cooling degree days 0 0  
Moisture  
Dew Point 26 °F    
Average Humidity 46    
Maximum Humidity 69    
Minimum Humidity 23    
Precipitation  
Precipitation 0.00 in 0.12 in 3.44 in (1952)
Month to date precipitation 0.00 1.52  
Year to date precipitation 0.00 1.52  
Since 1 July precipitation 1.91  
Sea Level Pressure  
Sea Level Pressure 30.10 in    
Wind  
Wind Speed 3 mph (ENE)    
Max Wind Speed 15 mph    
Max Gust Speed 21 mph    
Visibility 10 miles    
Events      
T = Trace of Precipitation, MM = Missing Value Source: NWS Daily Summary

Daily Weather History Graph

Daily Weather History Graph

Search for Another Location

Airport or City:

Astronomy

Jan. 12, 2012 Rise Set
Actual Time 7:22 AM PST 5:09 PM PST
Civil Twilight 6:53 AM PST 5:37 PM PST
Nautical Twilight 6:21 AM PST 6:10 PM PST
Astronomical Twilight 5:49 AM PST 6:41 PM PST
Moon 9:14 PM PST (1/12) 9:13 AM PST (1/12)
Length of Visible Light 10h 44m
Length of Day
9h 46m
Waning Gibbous, 86% of the Moon is Illuminated
Jan 12
Waning Gibbous
Jan 16
Last Quarter
Jan 22
New
Jan 30
First Quarter
Feb 7
Full

Hourly Weather History & Observations

Time (PST) Temp. Dew Point Humidity Pressure Visibility Wind Dir Wind Speed Gust Speed Precip Events Conditions
12:53 AM 39.0 °F 24.1 °F 55% 30.08 in 10.0 mi Calm Calm - N/A   Clear
1:53 AM 37.0 °F 24.1 °F 59% 30.09 in 10.0 mi Calm Calm - N/A   Clear
2:53 AM 36.0 °F 24.1 °F 62% 30.09 in 10.0 mi Calm Calm - N/A   Clear
3:53 AM 35.1 °F 23.0 °F 61% 30.09 in 10.0 mi Calm Calm - N/A   Clear
4:53 AM 34.0 °F 23.0 °F 64% 30.10 in 10.0 mi Calm Calm - N/A   Clear
5:53 AM 34.0 °F 24.1 °F 67% 30.11 in 10.0 mi Calm Calm - N/A   Clear
6:53 AM 33.1 °F 23.0 °F 66% 30.11 in 10.0 mi Calm Calm - N/A   Clear
6:55 AM 33.8 °F 23.0 °F 65% 30.10 in 10.0 mi Calm Calm - N/A   Clear
7:53 AM 35.1 °F 25.0 °F 67% 30.12 in 10.0 mi Calm Calm - N/A   Clear
8:53 AM 41.0 °F 30.0 °F 65% 30.13 in 10.0 mi Calm Calm - N/A   Clear
9:53 AM 48.9 °F 28.9 °F 46% 30.14 in 10.0 mi Calm Calm - N/A   Clear
10:53 AM 55.9 °F 30.0 °F 37% 30.13 in 10.0 mi Calm Calm - N/A   Clear
11:53 AM 60.1 °F 30.0 °F 32% 30.10 in 10.0 mi ENE 13.8 mph - N/A   Clear
12:53 PM 63.0 °F 30.0 °F 29% 30.07 in 10.0 mi ENE 13.8 mph - N/A   Clear
1:53 PM 63.0 °F 27.0 °F 26% 30.06 in 10.0 mi NE 12.7 mph - N/A   Clear
3:53 PM 63.0 °F 25.0 °F 24% 30.06 in 10.0 mi ENE 11.5 mph - N/A   Clear
4:53 PM 59.0 °F 25.0 °F 27% 30.06 in 10.0 mi East 9.2 mph - N/A   Clear
5:53 PM 53.1 °F 25.0 °F 34% 30.08 in 10.0 mi ENE 3.5 mph - N/A   Clear
6:53 PM 50.0 °F 28.0 °F 43% 30.08 in 10.0 mi ENE 3.5 mph - N/A   Clear
7:53 PM 48.9 °F 28.0 °F 44% 30.10 in 10.0 mi Calm Calm - N/A   Clear
8:53 PM 44.1 °F 28.0 °F 53% 30.11 in 10.0 mi Calm Calm - N/A   Clear
9:53 PM 41.0 °F 25.0 °F 53% 30.13 in 10.0 mi Calm Calm - N/A   Clear
10:53 PM 39.0 °F 25.0 °F 57% 30.15 in 10.0 mi Calm Calm - N/A   Clear
11:53 PM 39.0 °F 25.0 °F 57% 30.16 in 10.0 mi Calm Calm - N/A   Clear